Location: Guferjoch
(46.7462°N, 8.4506°E)
Time: 13:36:59
(UTC+00:00)

N. Korean satellite - Visible Passes

Search period start: 28 February 2021 00:00
Search period end: 10 March 2021 00:00
Orbit: 451 x 503 km, 97.2° (Epoch: 27 February)

Date Brightness Start Highest point End Pass type
(mag) Time Alt. Az. Time Alt. Az. Time Alt. Az.
28 Feb 6.5 05:12:08 10° N 05:15:35 62° WNW 05:19:06 10° SSW visible
01 Mar 7.2 04:45:24 10° NNE 04:48:53 58° E 04:52:23 10° S visible
02 Mar 8.8 04:18:59 10° NE 04:22:03 27° E 04:25:08 10° SSE visible
03 Mar 9.8 03:53:12 10° ENE 03:55:08 14° E 03:57:03 10° SE visible
03 Mar 6.9 05:25:17 10° N 05:28:39 42° WNW 05:32:02 10° SW visible
04 Mar 6.5 04:58:24 10° NNE 05:01:57 87° ESE 05:05:32 10° SSW visible
05 Mar 8.0 04:31:48 10° NNE 04:35:10 39° E 04:38:33 10° S visible
06 Mar 9.4 04:05:37 10° NE 04:08:17 20° E 04:10:58 10° SE visible
07 Mar 6.5 05:11:26 10° N 05:14:58 64° WNW 05:18:33 10° SSW visible
08 Mar 7.2 04:44:41 10° NNE 04:48:13 58° E 04:51:48 10° S visible
09 Mar 8.8 04:18:15 10° NE 04:21:22 27° E 04:24:32 10° SSE visible
